www.pogodaiklimat.ru

Погода и климат >> Архив погоды >> Турция >> Чанаккале


ПОГОДА в Чанаккале

  • Прогноз погоды в Чанаккале
  • Монитор погоды в Чанаккале

АРХИВ ПОГОДЫ в Чанаккале

Время (UTC), дата Ветер
(напр.,м/с)
 
Видим.   Явления Облачность Т
(С)
Тd
(С)
f
(%)
Тe
(С)
Тes
(С)
Комфортность P
(гПа)
Po
(гПа)
Тmin
(С)
Tmax
(С)
R
(мм)
R24
(мм)
S
(см)
06 10.07 СВ 2
{10}
11 км слаб. ливневой дождь 8/4 1000 м
[Cu med, cong Ac und]
+24.4 +19.7 75 +30 +32 очень
душно
1008.0 1007.8 +23.3 0.0
07 10.07 СВ 2 20 км в посл. час ливневой дождь 5/4 1000 м
[Cu hum Ac trans]
+27.9 +19.8 61 +34 +40 очень
душно
1007.6 1007.4
08 10.07 С 3 20 км 3/3 1000 м
[Cu hum]
+28.7 +19.4 57 +34 +43 очень
душно
1008.0 1007.8
09 10.07 СВ 4
{7}
15 км {ливн. осадки} 3/3 1050 м
[Cu hum]
+29.2 +19.6 56 +35 +45 очень
душно
1008.2 1008.0
10 10.07 С 3 15 км 4/4 1000 м
[Cu hum]
+30.5 +19.3 51 +36 +46 очень
душно
1007.9 1007.7
11 10.07 С 2 15 км 3/3 1000 м
[Cu hum]
+32.0 +20.0 49 +38 +52 опасность
солнечного
удара
1007.6 1007.4
12 10.07 С 2
{7}
15 км {ливн. осадки} 4/4 1050 м
[Cu med, cong]
+32.2 +18.4 44 +37 +47 очень
душно
1007.2 1007.0 0.0
13 10.07 В 2 15 км 3/3 1000 м
[Cu med, cong]
+32.3 +18.1 43 +37 +46 очень
душно
1006.5 1006.3
14 10.07 СВ 3 15 км 5/3 1000 м
[Cu med, cong Ci fib]
+32.1 +18.7 45 +37 +42 очень
душно
1006.3 1006.1
15 10.07 СВ 3
{6}
15 км 5/0
[Ci fib]
+31.1 +18.1 46 +36 +39 очень
душно
1005.8 1005.6
06 11.07 СВ 4
{11}
8000 м слаб. ливневой дождь {гроза} 9/6 900 м
[Cb cap Ac trans]
+17.0 +14.4 85 +16 +17 1007.7 1007.5 +16.7 16
07 11.07 СВ 4 8000 м слаб. ливневой дождь 9/5 600 м
[Cu med, cong Ac trans]
+17.1 +14.7 86 +17 +19 1008.0 1007.8
08 11.07 СВ 6 15 км в посл. час ливневой дождь 8/5 1000 м
[Cu med, cong Ac trans]
+19.3 +13.9 71 +20 +22 1008.2 1008.0
09 11.07 СВ 5
{12}
15 км {ливн. осадки} 8/4 1050 м
[Cu med, cong Ac trans]
+21.9 +14.3 62 +25 +29 комфорт 1008.3 1008.1
10 11.07 СВ 5 15 км 8/4 1000 м
[Cu med, cong Ac trans]
+22.8 +14.2 58 +26 +30 жарко 1008.7 1008.5
11 11.07 СВ 4 15 км 8/4 1000 м
[Cu med, cong Ac trans]
+23.0 +14.3 58 +27 +31 душно 1008.8 1008.6
12 11.07 СВ 3
{12}
15 км {ливн. осадки} 6/4 1050 м
[Cu med, cong Ac trans]
+23.7 +14.7 57 +26 +33 жарко 1008.7 1008.5 1
13 11.07 СВ 5 15 км 6/4 1000 м
[Cu med, cong Ac trans]
+24.2 +14.9 56 +27 +31 жарко 1008.9 1008.7
14 11.07 СВ 4 15 км 4/4 1000 м
[Cu med, cong]
+24.9 +13.1 48 +27 +30 жарко 1009.1 1008.9
15 11.07 В 3
{9}
15 км 4/4 1050 м
[Cu med, cong]
+25.7 +12.8 45 +28 +30 жарко 1009.1 1008.9
06 12.07 С 1
{3}
20 км 5/1 1050 м
[Cu hum Ci fib]
+22.8 +14.7 60 +26 +33 жарко 1011.6 1011.4 +17.0
07 12.07 С 1 20 км 4/1 1000 м
[Cu hum Ci fib]
+25.4 +13.6 48 +28 +38 жарко 1011.5 1011.3
08 12.07 С 2 20 км 1/1 1000 м
[Cu hum]
+27.0 +13.3 43 +29 +43 жарко 1011.7 1011.5
09 12.07 СВ 2
{4}
20 км 1/1 1050 м
[Cu hum]
+28.0 +8.2 29 +28 +44 жарко 1011.6 1011.4
10 12.07 С 3 20 км 3/3 1000 м
[Cu hum]
+28.8 +10.3 32 +29 +42 жарко 1011.4 1011.2
11 12.07 С 3 20 км 3/3 1000 м
[Cu hum]
+28.6 +10.6 33 +29 +41 жарко 1010.8 1010.6
12 12.07 С 3
{4}
20 км 1/1 1050 м
[Cu hum]
+28.8 +10.8 33 +29 +43 жарко 1010.8 1010.6
13 12.07 СЗ 3 20 км 1/1 1000 м
[Cu hum]
+28.7 +9.8 31 +29 +39 жарко 1011.1 1010.9
14 12.07 СЗ 3 20 км 1/1 1000 м
[Cu hum]
+29.1 +11.5 34 +30 +36 жарко 1010.9 1010.7
15 12.07 С 3
{5}
20 км 1/1 1050 м
[Cu hum]
+29.2 +9.7 30 +29 +33 жарко 1010.2 1010.0
06 13.07 В 2
{3}
20 км ясно +24.3 +12.2 47 +26 +33 жарко 1011.3 1011.1 +18.7
07 13.07 СЗ 2 20 км 1/1 1000 м
[Cu hum]
+27.2 +12.3 40 +29 +39 жарко 1011.1 1010.9
08 13.07 СЗ 2 20 км 1/1 1000 м
[Cu hum]
+28.3 +14.8 44 +31 +46 душно 1011.0 1010.8
09 13.07 С 2
{3}
20 км 3/3 1050 м
[Cu hum]
+28.9 +13.5 39 +31 +43 жарко 1010.7 1010.5
10 13.07 СЗ 2 20 км 3/3 1000 м
[Cu hum]
+30.4 +9.7 28 +30 +44 жарко 1010.2 1010.0
11 13.07 С 2 20 км 3/3 1000 м
[Cu hum]
+31.2 +9.3 26 +31 +45 жарко 1009.5 1009.3
12 13.07 СЗ 3
{4}
20 км 3/3 1050 м
[Cu hum]
+30.8 +14.3 37 +33 +43 душно 1009.4 1009.2
13 13.07 СЗ 3 20 км 5/3 1000 м
[Cu hum Ac trans]
+28.8 +13.8 40 +31 +37 жарко 1009.3 1009.1
14 13.07 С 2 20 км 6/1 1000 м
[Cu hum Ac trans Ci fib]
+29.5 +12.8 36 +31 +36 жарко 1008.9 1008.7
15 13.07 С 2
{5}
20 км 5/1 1050 м
[Cu hum Ci fib]
+30.0 +13.2 36 +31 +35 жарко 1008.7 1008.5
06 14.07 В 2
{4}
20 км в посл. час ливневой дождь 9/5 1050 м
[Cu med, cong Ac As]
+19.9 +16.1 79 +23 +25 комфорт 1005.7 1005.5 +19.0 3
07 14.07 штиль 0 20 км 9/5 1000 м
[Cu med, cong Ac As]
+21.7 +16.0 70 +25 +29 комфорт 1005.5 1005.3
08 14.07 СВ 1 8000 м слаб. ливневой дождь 9/5 600 м
[Cu med, cong Ac As]
+22.8 +16.2 66 +27 +31 душно 1005.4 1005.2
09 14.07 С 1
{3}
20 км в посл. час ливневой дождь 9/5 1050 м
[Cu med, cong Ac As]
+23.3 +16.2 64 +28 +33 душно 1005.1 1004.9
10 14.07 С 3 20 км 9/5 1000 м
[Cu med, cong Ac As]
+22.8 +15.2 62 +27 +30 душно 1005.1 1004.9
11 14.07 С 2 20 км 9/5 1000 м
[Cu med, cong Ac As]
+23.3 +14.6 58 +27 +32 душно 1005.3 1005.1
12 14.07 С 2
{5}
20 км {ливн. осадки} 8/4 1050 м
[Cu med, cong Ac und]
+25.5 +16.1 56 +29 +35 душно 1005.1 1004.9 0.0
13 14.07 СЗ 2 20 км 8/4 1000 м
[Cu med, cong Ac und]
+26.4 +14.8 49 +29 +34 жарко 1004.5 1004.3
14 14.07 С 2 20 км 6/4 1000 м
[Cu med, cong Ac und]
+27.2 +14.9 47 +30 +34 душно 1004.3 1004.1
15 14.07 СЗ 2
{3}
20 км 4/4 1050 м
[Cu med, cong]
+27.3 +15.3 48 +30 +33 душно 1004.7 1004.5
06 15.07 С 1
{3}
20 км 1/1 1050 м
[Cu hum]
+23.0 +15.6 63 +27 +34 душно 1008.8 1008.6 +17.5
08 15.07 С 2 20 км 3/3 1000 м
[Cu hum]
+24.5 +15.8 58 +28 +38 душно 1008.9 1008.7
09 15.07 СЗ 2
{4}
20 км 3/3 1050 м
[Cu hum]
+25.9 +14.7 50 +28 +42 жарко 1009.1 1008.9
10 15.07 С 2 20 км 3/3 1000 м
[Cu hum]
+27.7 +12.4 39 +29 +44 жарко 1009.1 1008.9
11 15.07 СЗ 2 20 км 4/3 1000 м
[Cu hum Ci fib]
+27.8 +13.3 41 +30 +43 жарко 1009.0 1008.8
12 15.07 С 2
{4}
20 км 5/3 1050 м
[Cu hum Ci fib]
+28.7 +14.5 42 +31 +42 жарко 1008.3 1008.1
13 15.07 СЗ 3 20 км 5/3 1000 м
[Cu hum Ci fib]
+28.7 +14.5 42 +31 +39 жарко 1008.1 1007.9
14 15.07 С 3 20 км 5/1 1000 м
[Cu hum Ci fib]
+28.3 +14.8 44 +31 +37 душно 1007.9 1007.7
15 15.07 С 2
{5}
20 км 4/1 1050 м
[Cu hum Ci fib]
+28.3 +14.8 44 +31 +35 душно 1007.8 1007.6
06 16.07 СВ 2
{4}
20 км 3/0
[Ci fib]
+24.2 +16.0 60 +27 +34 жарко 1008.5 1008.3 +17.8
07 16.07 С 3 20 км 3/0
[Ci fib]
+27.1 +16.1 51 +30 +40 душно 1008.1 1007.9
08 16.07 С 4 20 км 4/1 1000 м
[Cu hum Ci fib]
+27.4 +15.7 49 +30 +40 жарко 1007.8 1007.6
09 16.07 СВ 6
{9}
20 км 4/1 1050 м
[Cu hum Ci fib]
+27.5 +14.8 46 +30 +37 жарко 1007.4 1007.2
10 16.07 СВ 6 20 км 4/1 1000 м
[Cu hum Ci fib]
+27.9 +15.5 47 +31 +37 душно 1007.0 1006.8
11 16.07 СВ 6 20 км 4/1 1000 м
[Cu hum Ci fib]
+28.3 +15.9 47 +31 +38 душно 1006.8 1006.6
12 16.07 С 6
{11}
20 км 5/3 1050 м
[Cu hum Ci fib]
+28.7 +14.5 42 +31 +35 жарко 1006.4 1006.2
13 16.07 СВ 6 20 км 5/3 1000 м
[Cu hum Ci fib]
+28.8 +12.6 37 +30 +34 жарко 1006.0 1005.8
14 16.07 СВ 4 20 км 5/3 1000 м
[Cu hum Ci fib]
+29.9 +9.8 29 +30 +34 жарко 1005.9 1005.7
15 16.07 СВ 4
{11}
20 км 5/1 1050 м
[Cu hum Ci fib]
+30.6 +10.4 29 +31 +33 жарко 1005.6 1005.4

 

Местоположение метеостанции Чанаккале (Турция): широта 40.13 долгота 26.40 высота над уровнем моря 6 м.

В архиве по умолчанию представлена погода в Чанаккале за последнюю неделю. Архивные данные за месяц целиком и за предыдущие месяцы, начиная с января 2011 года, Вы можете получить, выбрав интересующий диапазон дат из раскрывающегося списка и нажав кнопку "Ввод!".


*Определитесь, кто Вы:
робот инопланетянин человек

Внимание! Время в таблицах - всемирное. Для получения местного времени необходимо прибавить поправку, которая равна 2 ч.

Смотрите также архив погоды в соседних городах и на ближайших метеорологических станциях:

Погода в Гёкчеаде (Турция) (43 км)
Погода в Аэропорту Гёкчеада (Турция) (45 км)
Погода в Александруполисе (Греция) (90 км)
Погода в Айвалыке (Турция) (96 км)
Погода на Лемносе (Греция) (102 км)
Погода в Митилини (Греция) (119 км)
Погода в Дикили (Турция) (127 км)
Погода в Бандырм (Турция) (135 км)
Погода в Текирдаге (Турция) (136 км)
Погода в Балыкесире (Турция) (142 км)

Пояснения к столбцам:

Ветер - указаны скорость ветра в м/с - средняя за 10 мин, порывы в срок и между сроками (в фигурных скобках) и направление, откуда дует ветер: С - северный, СВ - северо-восточный, В - восточный, ЮВ - юго-восточный, Ю - южный, ЮЗ - юго-западный, З - западный, СЗ - северо-западный.
Видимость - горизонтальная дальность видимости в метрах или километрах. При видимости от 1 до 10 км при отсутствии осадков обычно наблюдается дымка, при ухудшении видимости до 1 км и менее - туман. В сухую погоду видимость может ухудшаться дымом, пылью или мглою.
Явления - указаны атмосферные явления, наблюдавшиеся в срок или в последний час перед сроком; фигурными скобками обозначены явления, наблюдавшиеся между сроками (за 1-3 часа до срока); квадратными скобками обозначены град или гололедные отложения с указанием их диаметра в мм.
Облачность - указаны через наклонную черту общая и нижняя облачность в баллах и высота нижней границы облаков в метрах; квадратными скобками обозначены формы облаков: Ci - перистые, Cs - перисто-слоистые, Cc - перисто-кучевые, Ac - высококучевые, As - высокослоистые, Sc - слоисто-кучевые, Ns - слоисто-дождевые, Cu - кучевые, Cb - кучево-дождевые. Подробнее классификацию облаков см. в Атласе облаков (PDF).
T - Температура воздуха - температура, измеренная на высоте 2 м над землей.
Td - Температура точки росы - температура, при понижении до которой содержащийся в воздухе водяной пар достигнет насыщения.
f - Относительная влажность воздуха - влажноcть воздуха, измеренная на высоте 2 м над землей.
Te - Эффективная температура - температура, которую ощущает одетый по сезону человек в тени. Характеристика душности погоды. При расчете учитывается влияние влажности воздуха и скорости ветра на теплоощущения человека.
Tes - Эффективная температура на солнце - температура, которую ощущает человек, с поправкой на солнечный нагрев. Характеристика знойности погоды. Зависит от высоты солнца над горизонтом, облачности и скорости ветра. Ночью, в пасмурную погоду, а также при ветре 12 м/с и более поправка равна нулю.
P - Атмосферное давление - приведенное к уровню моря атмосферное давление.
Po - Атмосферное давление - измеренное на уровне метеостанции атмосферное давление.
Tmin - Минимальная температура - минимум температуры воздуха на высоте 2 м над землей.
Tmax - Максимальная температура - максимум температуры воздуха на высоте 2 м над землей.
R - Количество осадков - Количество выпавших осадков за период времени, мм. При наведении курсора мыши на число - период времени, за который выпало указанное количество осадков.
R24 - Количество осадков - Количество выпавших осадков за 24 часа, мм.
S - Снежный покров - Высота снежного покрова, см. При наведении курсора мыши на число - состояние снежного покрова и степень покрытия местности в баллах.